TimeEDT,TemperatureF,Dew PointF,Humidity,Sea Level PressureIn,VisibilityMPH,Wind Direction,Wind SpeedMPH,Gust SpeedMPH,PrecipitationIn,Events,Conditions,WindDirDegrees,DateUTC
12:54 AM,55.0,52.0,89,29.88,10.0,WSW,4.6,-,N/A,,Scattered Clouds,250,2012-10-01 04:54:00
1:54 AM,54.0,51.1,90,29.89,10.0,WSW,4.6,-,N/A,,Clear,240,2012-10-01 05:54:00
2:54 AM,53.1,50.0,89,29.88,10.0,West,3.5,-,N/A,,Clear,260,2012-10-01 06:54:00
3:54 AM,51.1,48.9,92,29.88,6.0,Calm,Calm,-,N/A,,Clear,0,2012-10-01 07:54:00
4:54 AM,51.1,48.9,92,29.90,7.0,West,3.5,-,N/A,,Clear,260,2012-10-01 08:54:00
5:54 AM,51.1,48.9,92,29.91,7.0,West,4.6,-,N/A,,Clear,260,2012-10-01 09:54:00
6:54 AM,48.0,46.0,93,29.92,5.0,Calm,Calm,-,N/A,,Clear,0,2012-10-01 10:54:00
7:54 AM,51.1,48.0,89,29.93,6.0,WSW,3.5,-,N/A,,Clear,250,2012-10-01 11:54:00
8:54 AM,55.0,50.0,83,29.95,8.0,West,4.6,-,N/A,,Clear,260,2012-10-01 12:54:00
9:54 AM,59.0,51.1,75,29.96,10.0,West,6.9,-,N/A,,Clear,270,2012-10-01 13:54:00
10:54 AM,63.0,48.9,60,29.96,10.0,WNW,8.1,-,N/A,,Clear,300,2012-10-01 14:54:00
11:54 AM,66.9,46.9,49,29.96,10.0,WNW,9.2,-,N/A,,Clear,290,2012-10-01 15:54:00
12:54 PM,69.1,44.1,40,29.95,10.0,WSW,8.1,-,N/A,,Clear,240,2012-10-01 16:54:00
1:54 PM,70.0,42.1,36,29.93,10.0,WSW,8.1,-,N/A,,Clear,250,2012-10-01 17:54:00
2:54 PM,71.1,43.0,36,29.93,10.0,West,10.4,-,N/A,,Clear,270,2012-10-01 18:54:00
3:54 PM,70.0,45.0,41,29.93,10.0,WSW,6.9,-,N/A,,Clear,240,2012-10-01 19:54:00
4:54 PM,68.0,46.0,45,29.94,10.0,WSW,9.2,-,N/A,,Clear,250,2012-10-01 20:54:00
5:54 PM,66.0,50.0,56,29.95,10.0,SSW,6.9,-,N/A,,Partly Cloudy,210,2012-10-01 21:54:00
6:54 PM,64.0,51.1,63,29.97,10.0,SSW,3.5,-,N/A,,Overcast,210,2012-10-01 22:54:00
7:54 PM,63.0,52.0,67,29.98,10.0,SSW,3.5,-,N/A,,Scattered Clouds,210,2012-10-01 23:54:00
8:54 PM,63.0,53.1,70,29.99,10.0,Calm,Calm,-,N/A,,Mostly Cloudy,0,2012-10-02 00:54:00
9:54 PM,61.0,55.0,81,29.99,10.0,Calm,Calm,-,N/A,,Overcast,0,2012-10-02 01:54:00
10:54 PM,62.1,55.0,78,29.98,10.0,Calm,Calm,-,N/A,,Partly Cloudy,0,2012-10-02 02:54:00
11:54 PM,63.0,57.0,81,29.98,10.0,NE,4.6,-,N/A,,Overcast,40,2012-10-02 03:54:00